| time (UTC) | temp C | wind direction | speed KPH | gust KPH | rain 1hr cm | rain 24hr cm | rain mn cm | humidity % | barometer mb |
| 20260505041548 | 17 | 143 | 1.6 | 8.0 | 0.00 | 0.00 | 0.00 | 73 | 1006.3 |
| 20260505041037 | 17 | 205 | 1.6 | 8.0 | 0.00 | 0.00 | 0.00 | 73 | 1006.4 |
| 20260505040637 | 18 | 146 | 1.6 | 12.9 | 0.00 | 0.00 | 0.00 | 72 | 1006.3 |
| 20260505040051 | 18 | 180 | 3.2 | 12.9 | 0.00 | 0.00 | 0.00 | 69 | 1006.2 |
| 20260505035551 | 18 | 190 | 1.6 | 12.9 | 0.00 | 0.00 | 0.00 | 69 | 1006.2 |
| 20260505035053 | 19 | 232 | 3.2 | 19.3 | 0.00 | 0.00 | 0.00 | 68 | 1006.2 |
| 20260505034551 | 19 | 219 | 6.4 | 19.3 | 0.00 | 0.00 | 0.00 | 68 | 1006.2 |
| 20260505034050 | 19 | 161 | 3.2 | 16.1 | 0.00 | 0.00 | 0.00 | 68 | 1006.1 |
| 20260505033551 | 19 | 153 | 6.4 | 16.1 | 0.00 | 0.00 | 0.00 | 67 | 1006.1 |
| 20260505033050 | 19 | 175 | 4.8 | 16.1 | 0.00 | 0.00 | 0.00 | 67 | 1006.1 |
| 20260505032549 | 19 | 207 | 6.4 | 16.1 | 0.00 | 0.00 | 0.00 | 67 | 1006.0 |
| 20260505032054 | 19 | 187 | 8.0 | 16.1 | 0.00 | 0.00 | 0.00 | 67 | 1006.0 |
| 20260505031553 | 19 | 226 | 6.4 | 16.1 | 0.00 | 0.00 | 0.00 | 68 | 1005.9 |
| 20260505031049 | 19 | 177 | 4.8 | 17.7 | 0.00 | 0.00 | 0.00 | 67 | 1005.9 |
| 20260505030651 | 19 | 203 | 3.2 | 11.3 | 0.00 | 0.00 | 0.00 | 67 | 1005.9 |
| 20260505030057 | 19 | 168 | 3.2 | 16.1 | 0.00 | 0.00 | 0.00 | 67 | 1005.8 |
| 20260505025546 | 20 | 204 | 1.6 | 16.1 | 0.00 | 0.00 | 0.00 | 66 | 1005.7 |
| 20260505025045 | 20 | 201 | 4.8 | 14.5 | 0.00 | 0.00 | 0.00 | 65 | 1005.7 |
| 20260505024545 | 20 | 198 | 3.2 | 19.3 | 0.00 | 0.00 | 0.00 | 65 | 1005.5 |
| 20260505024045 | 20 | 209 | 4.8 | 19.3 | 0.00 | 0.00 | 0.00 | 64 | 1005.4 |
| 20260505023545 | 20 | 188 | 6.4 | 16.1 | 0.00 | 0.00 | 0.00 | 64 | 1005.1 |
| 20260505023044 | 20 | 168 | 6.4 | 12.9 | 0.00 | 0.00 | 0.00 | 64 | 1005.0 |
| 20260505022544 | 20 | 157 | 4.8 | 12.9 | 0.00 | 0.00 | 0.00 | 64 | 1004.9 |
| 20260505022045 | 20 | 188 | 3.2 | 12.9 | 0.00 | 0.00 | 0.00 | 64 | 1004.8 |
| 20260505021552 | 20 | 234 | 4.8 | 14.5 | 0.00 | 0.00 | 0.00 | 63 | 1004.8 |
| 20260505021044 | 21 | 171 | 6.4 | 17.7 | 0.00 | 0.00 | 0.00 | 63 | 1004.6 |
| 20260505020647 | 21 | 203 | 4.8 | 17.7 | 0.00 | 0.00 | 0.00 | 63 | 1004.5 |
| 20260505020051 | 21 | 209 | 4.8 | 14.5 | 0.00 | 0.00 | 0.00 | 63 | 1004.4 |
| 20260505015540 | 21 | 177 | 6.4 | 11.3 | 0.00 | 0.00 | 0.00 | 63 | 1004.4 |
| 20260505015042 | 20 | 201 | 4.8 | 9.7 | 0.00 | 0.00 | 0.00 | 64 | 1004.4 |
| 20260505014540 | 20 | 183 | 3.2 | 19.3 | 0.00 | 0.00 | 0.00 | 64 | 1004.4 |
| 20260505014039 | 21 | 171 | 4.8 | 19.3 | 0.00 | 0.00 | 0.00 | 65 | 1004.5 |
| 20260505013543 | 21 | 215 | 3.2 | 11.3 | 0.00 | 0.00 | 0.00 | 64 | 1004.5 |
| 20260505013041 | 21 | 160 | 3.2 | 11.3 | 0.00 | 0.00 | 0.00 | 64 | 1004.5 |
| 20260505012539 | 21 | 184 | 3.2 | 8.0 | 0.00 | 0.00 | 0.00 | 63 | 1004.5 |
| 20260505012039 | 21 | 182 | 1.6 | 8.0 | 0.00 | 0.00 | 0.00 | 63 | 1004.4 |
| 20260505011539 | 21 | 196 | 3.2 | 8.0 | 0.00 | 0.00 | 0.00 | 62 | 1004.5 |
| 20260505011038 | 21 | 194 | 1.6 | 9.7 | 0.00 | 0.00 | 0.00 | 62 | 1004.3 |
| 20260505010639 | 21 | 180 | 3.2 | 6.4 | 0.00 | 0.00 | 0.00 | 61 | 1004.3 |
| 20260505010104 | 21 | 147 | 1.6 | 12.9 | 0.00 | 0.00 | 0.00 | 60 | 1004.3 |
| 20260505005542 | 22 | 176 | 3.2 | 19.3 | 0.00 | 0.00 | 0.00 | 60 | 1004.3 |
| 20260505005043 | 22 | 158 | 6.4 | 19.3 | 0.00 | 0.00 | 0.00 | 60 | 1004.2 |
| 20260505004542 | 22 | 113 | 3.2 | 16.1 | 0.00 | 0.00 | 0.00 | 59 | 1004.1 |
| 20260505004041 | 22 | 196 | 3.2 | 16.1 | 0.00 | 0.00 | 0.00 | 58 | 1004.1 |
| 20260505003541 | 22 | 217 | 3.2 | 17.7 | 0.00 | 0.00 | 0.00 | 57 | 1004.1 |
| 20260505003048 | 23 | 199 | 3.2 | 33.8 | 0.00 | 0.00 | 0.00 | 57 | 1004.0 |
| 20260505002541 | 23 | 163 | 6.4 | 33.8 | 0.00 | 0.00 | 0.00 | 56 | 1004.0 |
| 20260505002041 | 23 | 238 | 6.4 | 17.7 | 0.00 | 0.00 | 0.00 | 55 | 1004.1 |
| 20260505001541 | 23 | 182 | 4.8 | 16.1 | 0.00 | 0.00 | 0.00 | 56 | 1003.9 |
| 20260505001042 | 23 | 159 | 9.7 | 22.5 | 0.00 | 0.00 | 0.00 | 54 | 1004.0 |
| 20260505000640 | 23 | 215 | 8.0 | 22.5 | 0.00 | 0.00 | 0.00 | 55 | 1004.1 |
| 20260505000045 | 23 | 214 | 8.0 | 25.7 | 0.00 | 0.00 | 0.00 | 54 | 1003.9 |
| 20260504235540 | 23 | 176 | 9.7 | 25.7 | 0.00 | 0.00 | 0.00 | 54 | 1003.9 |
| 20260504235038 | 23 | 188 | 6.4 | 20.9 | 0.00 | 0.00 | 0.00 | 54 | 1004.0 |
| 20260504234538 | 24 | 219 | 6.4 | 32.2 | 0.00 | 0.00 | 0.00 | 54 | 1004.1 |
| 20260504234037 | 24 | 175 | 9.7 | 32.2 | 0.00 | 0.00 | 0.00 | 53 | 1004.2 |
| 20260504233537 | 24 | 212 | 4.8 | 19.3 | 0.00 | 0.00 | 0.00 | 54 | 1004.2 |
| 20260504233044 | 24 | 221 | 9.7 | 24.1 | 0.00 | 0.00 | 0.00 | 53 | 1004.0 |
| 20260504232537 | 25 | 188 | 8.0 | 24.1 | 0.00 | 0.00 | 0.00 | 52 | 1004.2 |
| 20260504232036 | 25 | 175 | 8.0 | 24.1 | 0.00 | 0.00 | 0.00 | 52 | 1004.2 |
| 20260504231537 | 25 | 237 | 6.4 | 19.3 | 0.00 | 0.00 | 0.00 | 52 | 1004.2 |
| 20260504231036 | 25 | 267 | 4.8 | 24.1 | 0.00 | 0.00 | 0.00 | 53 | 1004.2 |
| 20260504230636 | 25 | 199 | 6.4 | 24.1 | 0.00 | 0.00 | 0.00 | 52 | 1004.3 |
| 20260504230109 | 25 | 178 | 9.7 | 19.3 | 0.00 | 0.00 | 0.00 | 51 | 1004.2 |
| 20260504225552 | 25 | 123 | 6.4 | 32.2 | 0.00 | 0.00 | 0.00 | 51 | 1004.1 |
| 20260504225051 | 25 | 169 | 8.0 | 32.2 | 0.00 | 0.00 | 0.00 | 51 | 1004.1 |
| 20260504224601 | 25 | 183 | 11.3 | 25.7 | 0.00 | 0.00 | 0.00 | 50 | 1004.1 |
| 20260504224049 | 25 | 259 | 6.4 | 19.3 | 0.00 | 0.00 | 0.00 | 51 | 1004.3 |
| 20260504223549 | 25 | 244 | 8.0 | 27.4 | 0.00 | 0.00 | 0.00 | 50 | 1004.1 |
| 20260504223049 | 25 | 265 | 12.9 | 32.2 | 0.00 | 0.00 | 0.00 | 49 | 1004.2 |
| 20260504222547 | 25 | 182 | 8.0 | 32.2 | 0.00 | 0.00 | 0.00 | 51 | 1004.1 |
| 20260504222046 | 25 | 180 | 9.7 | 32.2 | 0.00 | 0.00 | 0.00 | 50 | 1004.1 |
| 20260504221547 | 25 | 190 | 12.9 | 32.2 | 0.00 | 0.00 | 0.00 | 50 | 1004.1 |
| 20260504221046 | 25 | 193 | 9.7 | 32.2 | 0.00 | 0.00 | 0.00 | 50 | 1004.1 |
| 20260504220647 | 25 | 178 | 8.0 | 32.2 | 0.00 | 0.00 | 0.00 | 51 | 1004.1 |
| 20260504220053 | 26 | 248 | 9.7 | 22.5 | 0.00 | 0.00 | 0.00 | 51 | 1004.1 |
| 20260504215546 | 26 | 169 | 8.0 | 24.1 | 0.00 | 0.00 | 0.00 | 51 | 1004.0 |
| 20260504215045 | 26 | 157 | 4.8 | 27.4 | 0.00 | 0.00 | 0.00 | 52 | 1004.0 |
| 20260504214547 | 26 | 220 | 9.7 | 32.2 | 0.00 | 0.00 | 0.00 | 51 | 1004.0 |
| 20260504214045 | 26 | 212 | 11.3 | 32.2 | 0.00 | 0.00 | 0.00 | 50 | 1004.1 |
| 20260504213546 | 25 | 240 | 8.0 | 27.4 | 0.00 | 0.00 | 0.00 | 51 | 1004.1 |
| 20260504213046 | 25 | 323 | 11.3 | 25.7 | 0.00 | 0.00 | 0.00 | 52 | 1003.9 |
| 20260504212545 | 25 | 143 | 8.0 | 25.7 | 0.00 | 0.00 | 0.00 | 51 | 1004.2 |
| 20260504212045 | 25 | 298 | 11.3 | 33.8 | 0.00 | 0.00 | 0.00 | 51 | 1004.0 |
| 20260504211544 | 25 | 286 | 11.3 | 32.2 | 0.00 | 0.00 | 0.00 | 49 | 1004.1 |
| 20260504211043 | 25 | 208 | 11.3 | 32.2 | 0.00 | 0.00 | 0.00 | 50 | 1004.1 |
| 20260504210645 | 25 | 190 | 8.0 | 25.7 | 0.00 | 0.00 | 0.00 | 52 | 1004.2 |
| 20260504210059 | 25 | 235 | 9.7 | 25.7 | 0.00 | 0.00 | 0.00 | 51 | 1004.2 |
| 20260504205545 | 25 | 300 | 3.2 | 30.6 | 0.00 | 0.00 | 0.00 | 52 | 1004.2 |
| 20260504205044 | 25 | 310 | 11.3 | 30.6 | 0.00 | 0.00 | 0.00 | 51 | 1004.3 |
| 20260504204548 | 26 | 248 | 8.0 | 24.1 | 0.00 | 0.00 | 0.00 | 51 | 1004.6 |
| 20260504204044 | 26 | 115 | 6.4 | 20.9 | 0.00 | 0.00 | 0.00 | 52 | 1004.5 |
| 20260504203545 | 26 | 172 | 8.0 | 20.9 | 0.00 | 0.00 | 0.00 | 52 | 1004.8 |
| 20260504203045 | 25 | 319 | 8.0 | 19.3 | 0.00 | 0.00 | 0.00 | 52 | 1004.8 |
| 20260504202541 | 25 | 220 | 4.8 | 25.7 | 0.00 | 0.00 | 0.00 | 52 | 1005.1 |
| 20260504202040 | 26 | 233 | 12.9 | 25.7 | 0.00 | 0.00 | 0.00 | 48 | 1005.1 |
| 20260504201546 | 26 | 207 | 9.7 | 24.1 | 0.00 | 0.00 | 0.00 | 51 | 1005.3 |
| 20260504201038 | 26 | 173 | 6.4 | 33.8 | 0.00 | 0.00 | 0.00 | 51 | 1005.3 |
| 20260504200640 | 26 | 201 | 11.3 | 33.8 | 0.00 | 0.00 | 0.00 | 52 | 1005.5 |
| 20260504200050 | 25 | 192 | 8.0 | 22.5 | 0.00 | 0.00 | 0.00 | 55 | 1005.6 |
| 20260504195540 | 24 | 210 | 4.8 | 14.5 | 0.00 | 0.00 | 0.00 | 55 | 1005.7 |
| 20260504195040 | 24 | 211 | 8.0 | 22.5 | 0.00 | 0.00 | 0.00 | 53 | 1005.7 |
| 20260504194538 | 24 | 225 | 12.9 | 22.5 | 0.00 | 0.00 | 0.00 | 52 | 1005.8 |
| 20260504194037 | 25 | 147 | 4.8 | 19.3 | 0.00 | 0.00 | 0.00 | 53 | 1006.0 |
| 20260504193537 | 25 | 298 | 8.0 | 19.3 | 0.00 | 0.00 | 0.00 | 50 | 1006.1 |
| 20260504193041 | 25 | 167 | 4.8 | 19.3 | 0.00 | 0.00 | 0.00 | 55 | 1006.2 |
| 20260504192535 | 25 | 189 | 9.7 | 19.3 | 0.00 | 0.00 | 0.00 | 51 | 1006.2 |
| 20260504192037 | 25 | 205 | 6.4 | 19.3 | 0.00 | 0.00 | 0.00 | 52 | 1006.3 |
| 20260504191538 | 25 | 219 | 8.0 | 19.3 | 0.00 | 0.00 | 0.00 | 52 | 1006.3 |
| 20260504191036 | 26 | 115 | 6.4 | 33.8 | 0.00 | 0.00 | 0.00 | 50 | 1006.1 |
| 20260504190503 | 26 | 320 | 9.7 | 33.8 | 0.00 | 0.00 | 0.00 | 50 | 1006.1 |
| 20260504190101 | 26 | 262 | 11.3 | 32.2 | 0.00 | 0.00 | 0.00 | 51 | 1006.1 |
| 20260504190000 | 26 | 202 | 12.9 | 32.2 | 0.00 | 0.00 | 0.00 | 49 | 1006.2 |
| 20260504185559 | 26 | 331 | 9.7 | 30.6 | 0.00 | 0.00 | 0.00 | 49 | 1006.2 |
| 20260504185059 | 26 | 173 | 14.5 | 37.0 | 0.00 | 0.00 | 0.00 | 48 | 1006.3 |
| 20260504184600 | 26 | 196 | 8.0 | 35.4 | 0.00 | 0.00 | 0.00 | 50 | 1006.3 |
| 20260504184058 | 26 | 213 | 11.3 | 37.0 | 0.00 | 0.00 | 0.00 | 49 | 1006.2 |
| 20260504183558 | 26 | 250 | 6.4 | 37.0 | 0.00 | 0.00 | 0.00 | 52 | 1006.3 |
| 20260504183056 | 25 | 355 | 12.9 | 37.0 | 0.00 | 0.00 | 0.00 | 50 | 1006.3 |
| 20260504182559 | 26 | 163 | 9.7 | 22.5 | 0.00 | 0.00 | 0.00 | 52 | 1006.2 |
| 20260504182054 | 26 | 150 | 9.7 | 17.7 | 0.00 | 0.00 | 0.00 | 51 | 1006.3 |
| 20260504181556 | 25 | 199 | 6.4 | 22.5 | 0.00 | 0.00 | 0.00 | 50 | 1006.2 |
| 20260504181053 | 25 | 247 | 3.2 | 22.5 | 0.00 | 0.00 | 0.00 | 52 | 1006.3 |
| 20260504180654 | 25 | 294 | 6.4 | 22.5 | 0.00 | 0.00 | 0.00 | 52 | 1006.4 |
| 20260504180057 | 25 | 174 | 6.4 | 25.7 | 0.00 | 0.00 | 0.00 | 52 | 1006.4 |
| 20260504175657 | 25 | 197 | 8.0 | 25.7 | 0.00 | 0.00 | 0.00 | 51 | 1006.4 |
| 20260504175055 | 25 | 207 | 6.4 | 33.8 | 0.00 | 0.00 | 0.00 | 55 | 1006.4 |
| 20260504174557 | 25 | 190 | 14.5 | 33.8 | 0.00 | 0.00 | 0.00 | 52 | 1006.4 |
| 20260504174055 | 25 | 210 | 16.1 | 29.0 | 0.00 | 0.00 | 0.00 | 51 | 1006.4 |
| 20260504173553 | 25 | 168 | 6.4 | 30.6 | 0.00 | 0.00 | 0.00 | 53 | 1006.3 |
| 20260504173053 | 25 | 184 | 9.7 | 29.0 | 0.00 | 0.00 | 0.00 | 55 | 1006.3 |
| 20260504172552 | 25 | 147 | 6.4 | 22.5 | 0.00 | 0.00 | 0.00 | 52 | 1006.4 |
| 20260504172051 | 25 | 193 | 4.8 | 27.4 | 0.00 | 0.00 | 0.00 | 55 | 1006.6 |
| 20260504171550 | 24 | 237 | 6.4 | 33.8 | 0.00 | 0.00 | 0.00 | 55 | 1006.6 |
| 20260504171050 | 24 | 238 | 12.9 | 33.8 | 0.00 | 0.00 | 0.00 | 54 | 1006.7 |
| 20260504170648 | 24 | 240 | 9.7 | 29.0 | 0.00 | 0.00 | 0.00 | 53 | 1006.7 |
| 20260504151041 | 21 | 171 | 11.3 | 25.7 | 0.00 | 0.00 | 0.00 | 57 | 1007.6 |
| 20260504150640 | 21 | 181 | 3.2 | 25.7 | 0.00 | 0.00 | 0.00 | 60 | 1007.7 |
| 20260504141040 | 20 | 240 | 8.0 | 20.9 | 0.00 | 0.00 | 0.00 | 61 | 1008.4 |
| 20260504140509 | 19 | 192 | 6.4 | 22.5 | 0.00 | 0.00 | 0.00 | 63 | 1008.5 |
| 20260504130504 | 17 | 230 | 4.8 | 25.7 | 0.00 | 0.00 | 0.00 | 68 | 1008.8 |
| 20260504110651 | 16 | 257 | 4.8 | 11.3 | 0.00 | 0.00 | 0.00 | 69 | 1009.0 |
| 20260504081541 | 16 | 220 | 4.8 | 14.5 | 0.00 | 0.00 | 0.00 | 69 | 1009.5 |
| 20260504081038 | 16 | 173 | 3.2 | 12.9 | 0.00 | 0.00 | 0.00 | 68 | 1009.6 |
| 20260504080638 | 16 | 270 | 1.6 | 12.9 | 0.00 | 0.00 | 0.00 | 69 | 1009.4 |
| 20260504050649 | 17 | 168 | 4.8 | 12.9 | 0.00 | 0.00 | 0.00 | 67 | 1011.2 |
| 20260504045548 | 17 | 190 | 4.8 | 29.0 | 0.00 | 0.00 | 0.00 | 66 | 1011.3 |
| 20260504045044 | 17 | 153 | 4.8 | 16.1 | 0.00 | 0.00 | 0.00 | 66 | 1011.4 |
| 20260504044547 | 17 | 254 | 6.4 | 16.1 | 0.00 | 0.00 | 0.00 | 66 | 1011.3 |
| 20260504044044 | 17 | 200 | 6.4 | 19.3 | 0.00 | 0.00 | 0.00 | 66 | 1011.4 |
| 20260504043544 | 17 | 189 | 3.2 | 19.3 | 0.00 | 0.00 | 0.00 | 66 | 1011.5 |
| 20260504043107 | 17 | 176 | 4.8 | 14.5 | 0.00 | 0.00 | 0.00 | 66 | 1011.5 |
| 20260504042543 | 17 | 235 | 4.8 | 14.5 | 0.00 | 0.00 | 0.00 | 66 | 1011.4 |